FW3211 Weather Reports


Display with metric or nautical units.
time (UTC)temp
F
wind
direction
speed
MPH
gust
MPH
rain 1hr
in
rain 24hr
in
rain mn
in
humidity
%
barometer
mb
20260902184704 71 21 1.0 2.0 0.00 0.00 0.00 73 1020.1
20260902184206 71 21 1.0 2.0 0.00 0.00 0.00 72 1020.0
20260902183945 71 21 1.0 2.0 0.00 0.00 0.00 72 1019.9
20260902183444 71 21 1.0 2.0 0.00 0.00 0.00 72 1020.0
20260902182706 72 21 1.0 2.0 0.00 0.00 0.00 72 1020.0
20260902182205 72 21 1.0 2.0 0.00 0.00 0.00 72 1019.9
20260902181704 72 21 1.0 3.0 0.00 0.00 0.00 72 1019.9
20260902181206 72 21 1.0 3.0 0.00 0.00 0.00 72 1019.9
20260902181111 72 21 1.0 2.0 0.00 0.00 0.00 72 1019.8
20260902181101 72 21 1.0 2.0 0.00 0.00 0.00 72 1019.9
20260902175703 72 21 1.0 2.0 0.00 0.00 0.00 72 1019.9
20260902175206 72 21 1.0 2.0 0.00 0.00 0.00 72 1019.8
20260902174705 72 21 1.0 3.0 0.00 0.00 0.00 72 1019.9
20260902174201 72 21 1.0 3.0 0.00 0.00 0.00 72 1019.8
20260902173947 72 21 1.0 2.0 0.00 0.00 0.00 72 1019.8
20260902173200 73 21 1.0 2.0 0.00 0.00 0.00 73 1019.8
20260902172659 73 21 1.0 4.0 0.00 0.00 0.00 73 1019.8
20260902172158 73 261 2.0 4.0 0.00 0.00 0.00 73 1019.8
20260902171656 73 285 1.0 4.0 0.00 0.00 0.00 73 1019.9
20260902171245 73 314 1.0 3.0 0.00 0.00 0.00 73 1019.9
20260902171226 73 44 1.0 4.0 0.00 0.00 0.00 73 1019.9
20260902170156 73 16 1.0 5.0 0.00 0.00 0.00 73 1019.9
20260902165651 73 297 1.0 5.0 0.00 0.00 0.00 73 1019.9
20260902165146 73 228 1.0 3.0 0.00 0.00 0.00 73 1019.9
20260902164638 74 222 1.0 5.0 0.00 0.00 0.00 73 1019.9
20260902164137 74 233 2.0 5.0 0.00 0.00 0.00 74 1019.9
20260902163950 74 269 2.0 6.0 0.00 0.00 0.00 74 1019.9
20260902163946 74 309 2.0 6.0 0.00 0.00 0.00 74 1019.8
20260902162635 74 290 2.0 6.0 0.00 0.00 0.00 74 1019.9
20260902162134 74 256 1.0 4.0 0.00 0.00 0.00 74 1019.9
20260902161634 74 208 1.0 3.0 0.00 0.00 0.00 74 1019.9
20260902161134 74 208 1.0 3.0 0.00 0.00 0.00 74 1019.9
20260902160633 74 206 1.0 7.0 0.00 0.00 0.00 74 1020.0
20260902160136 74 283 1.0 7.0 0.00 0.00 0.00 74 1019.9
20260902155922 74 237 2.0 5.0 0.00 0.00 0.00 74 1019.9
20260902155134 74 239 1.0 4.0 0.00 0.00 0.00 74 1019.9
20260902154632 74 221 1.0 4.0 0.00 0.00 0.00 75 1019.9
20260902154130 74 49 2.0 6.0 0.00 0.00 0.00 75 1019.9
20260902153627 75 114 2.0 6.0 0.00 0.00 0.00 76 1020.0
20260902153121 75 233 2.0 4.0 0.00 0.00 0.00 76 1020.1
20260902152616 75 246 2.0 4.0 0.00 0.00 0.00 77 1020.1
20260902152116 75 241 2.0 5.0 0.00 0.00 0.00 77 1020.2
20260902151705 76 293 2.0 4.0 0.00 0.00 0.00 77 1020.1
20260902151648 75 315 2.0 5.0 0.00 0.00 0.00 77 1020.1
20260902150626 76 144 2.0 6.0 0.00 0.00 0.00 76 1020.2
20260902150117 76 113 2.0 6.0 0.00 0.00 0.00 76 1020.2
20260902145616 76 97 1.0 4.0 0.00 0.00 0.00 76 1020.2
20260902145116 76 178 1.0 3.0 0.00 0.00 0.00 76 1020.2
20260902144615 76 176 2.0 4.0 0.00 0.00 0.00 76 1020.2
20260902144115 76 176 2.0 4.0 0.00 0.00 0.00 75 1020.3
20260902143617 77 191 2.0 6.0 0.00 0.00 0.00 75 1020.2
20260902143116 76 141 2.0 6.0 0.00 0.00 0.00 75 1020.2
20260902142617 77 94 2.0 6.0 0.00 0.00 0.00 75 1020.1
20260902142110 77 24 2.0 4.0 0.00 0.00 0.00 75 1020.1
20260902141606 76 132 2.0 4.0 0.00 0.00 0.00 76 1020.2
20260902141109 76 138 2.0 8.0 0.00 0.00 0.00 76 1020.3
20260902140606 76 109 2.0 8.0 0.00 0.00 0.00 76 1020.4
20260902140344 76 44 2.0 6.0 0.00 0.00 0.00 76 1020.4
20260902135604 76 199 2.0 8.0 0.00 0.00 0.00 77 1020.4
20260902135107 76 67 2.0 8.0 0.00 0.00 0.00 76 1020.5
20260902134604 76 122 2.0 4.0 0.00 0.00 0.00 77 1020.5
20260902134103 76 114 2.0 7.0 0.00 0.00 0.00 77 1020.5
20260902133604 76 73 3.0 7.0 0.00 0.00 0.00 76 1020.6
20260902133105 77 96 3.0 7.0 0.00 0.00 0.00 76 1020.6
20260902132604 77 226 3.0 7.0 0.00 0.00 0.00 75 1020.6
20260902132103 77 113 2.0 7.0 0.00 0.00 0.00 75 1020.6
20260902131603 77 210 2.0 7.0 0.00 0.00 0.00 75 1020.7
20260902131104 77 196 2.0 5.0 0.00 0.00 0.00 75 1020.7
20260902130554 77 193 2.0 5.0 0.00 0.00 0.00 75 1020.7
20260902130049 77 187 2.0 5.0 0.00 0.00 0.00 75 1020.7
20260902125546 76 177 2.0 4.0 0.00 0.00 0.00 75 1020.8
20260902125047 76 172 3.0 9.0 0.00 0.00 0.00 76 1020.8
20260902124546 77 181 4.0 9.0 0.00 0.00 0.00 76 1020.9
20260902124044 77 119 3.0 8.0 0.00 0.00 0.00 76 1021.0
20260902123545 77 331 3.0 8.0 0.00 0.00 0.00 75 1021.1
20260902123045 77 139 3.0 8.0 0.00 0.00 0.00 76 1021.1
20260902122545 77 106 3.0 8.0 0.00 0.00 0.00 76 1021.1
20260902122044 77 160 3.0 8.0 0.00 0.00 0.00 76 1021.2
20260902121544 77 137 3.0 7.0 0.00 0.00 0.00 74 1021.2
20260902121045 78 204 3.0 7.0 0.00 0.00 0.00 74 1021.2
20260902120544 77 112 3.0 7.0 0.00 0.00 0.00 74 1021.2
20260902120057 77 150 2.0 6.0 0.00 0.00 0.00 74 1021.2
20260902115545 77 180 2.0 5.0 0.00 0.00 0.00 74 1021.3
20260902115043 77 167 2.0 5.0 0.00 0.00 0.00 74 1021.3
20260902114537 77 181 3.0 6.0 0.00 0.00 0.00 75 1021.3
20260902114036 76 119 3.0 9.0 0.00 0.00 0.00 76 1021.3
20260902113622 76 90 4.0 10.0 0.00 0.00 0.00 77 1021.4
20260902113603 76 61 4.0 9.0 0.00 0.00 0.00 77 1021.3
20260902112537 76 158 3.0 10.0 0.00 0.00 0.00 77 1021.4
20260902112037 76 93 3.0 8.0 0.00 0.00 0.00 77 1021.3
20260902111534 76 135 4.0 9.0 0.00 0.00 0.00 77 1021.4
20260902111034 76 97 4.0 10.0 0.00 0.00 0.00 76 1021.4
20260902110535 77 151 3.0 10.0 0.00 0.00 0.00 75 1021.4
20260902110036 76 129 3.0 10.0 0.00 0.00 0.00 77 1021.5
20260902105535 76 127 5.0 10.0 0.00 0.00 0.00 76 1021.4
20260902105035 76 152 5.0 12.0 0.00 0.00 0.00 76 1021.5
20260902104535 76 104 5.0 12.0 0.00 0.00 0.00 76 1021.6
20260902104036 77 179 5.0 10.0 0.00 0.00 0.00 76 1021.6
20260902103535 76 216 4.0 9.0 0.00 0.00 0.00 76 1021.7
20260902103315 77 123 3.0 9.0 0.00 0.00 0.00 76 1021.7
20260902102838 77 135 3.0 9.0 0.00 0.00 0.00 75 1021.7
20260902102035 76 114 3.0 6.0 0.00 0.00 0.00 76 1021.7
20260902101819 76 114 3.0 9.0 0.00 0.00 0.00 76 1021.8
20260902101035 76 101 4.0 9.0 0.00 0.00 0.00 76 1021.8
20260902100535 76 115 3.0 8.0 0.00 0.00 0.00 76 1021.8
20260902100036 76 90 3.0 8.0 0.00 0.00 0.00 75 1021.8
20260902095535 77 162 3.0 6.0 0.00 0.00 0.00 75 1021.7
20260902095041 77 172 3.0 7.0 0.00 0.00 0.00 75 1021.7
20260902094533 78 106 2.0 7.0 0.00 0.00 0.00 73 1021.7
20260902094033 78 247 2.0 7.0 0.00 0.00 0.00 73 1021.7
20260902093534 78 125 2.0 7.0 0.00 0.00 0.00 73 1021.7
20260902093032 78 174 2.0 6.0 0.00 0.00 0.00 72 1021.7
20260902092526 78 199 2.0 7.0 0.00 0.00 0.00 73 1021.7
20260902092026 78 135 2.0 7.0 0.00 0.00 0.00 71 1021.7
20260902091526 78 139 1.0 4.0 0.00 0.00 0.00 71 1021.7
20260902091025 78 133 1.0 4.0 0.00 0.00 0.00 71 1021.7
20260902090525 78 185 2.0 4.0 0.00 0.00 0.00 71 1021.7
20260902090025 78 120 2.0 6.0 0.00 0.00 0.00 71 1021.7
20260902085521 78 93 2.0 6.0 0.00 0.00 0.00 71 1021.7
20260902085019 78 152 2.0 6.0 0.00 0.00 0.00 71 1021.7
20260902084802 78 132 2.0 6.0 0.00 0.00 0.00 71 1021.7
20260902084019 78 122 2.0 6.0 0.00 0.00 0.00 72 1021.7
20260902083819 77 189 2.0 6.0 0.00 0.00 0.00 71 1021.7
20260902083048 77 156 2.0 4.0 0.00 0.00 0.00 71 1021.5
20260902083037 77 161 2.0 5.0 0.00 0.00 0.00 71 1021.6
20260902082012 76 102 2.0 5.0 0.00 0.00 0.00 72 1021.5
20260902081810 76 172 2.0 5.0 0.00 0.00 0.00 71 1021.4
20260902081012 76 152 2.0 5.0 0.00 0.00 0.00 71 1021.4
20260902080511 76 112 2.0 5.0 0.00 0.00 0.00 71 1021.3
20260902080018 76 152 2.0 5.0 0.00 0.00 0.00 71 1021.3
20260902075759 76 143 2.0 3.0 0.00 0.00 0.00 71 1021.3
20260902075012 76 155 2.0 3.0 0.00 0.00 0.00 71 1021.2
20260902074511 75 155 2.0 4.0 0.00 0.00 0.00 71 1021.1
20260902074018 75 176 2.0 4.0 0.00 0.00 0.00 70 1021.1
20260902073514 75 128 2.0 5.0 0.00 0.00 0.00 71 1021.1
20260902073012 75 112 2.0 5.0 0.00 0.00 0.00 70 1021.1
20260902072511 75 147 2.0 4.0 0.00 0.00 0.00 70 1021.0
20260902072012 74 118 1.0 3.0 0.00 0.00 0.00 70 1021.0
20260902071512 74 154 1.0 3.0 0.00 0.00 0.00 70 1020.9
20260902071017 74 154 1.0 3.0 0.00 0.00 0.00 70 1021.0
20260902070514 74 154 1.0 3.0 0.00 0.00 0.00 71 1021.0
20260902070316 74 154 1.0 3.0 0.00 0.00 0.00 71 1021.0
20260902065505 74 154 1.0 3.0 0.00 0.00 0.00 71 1021.0
20260902065005 74 154 1.0 3.0 0.00 0.00 0.00 71 1021.0
20260902064747 74 154 1.0 3.0 0.00 0.00 0.00 71 1021.1
20260902064007 74 154 1.0 3.0 0.00 0.00 0.00 70 1021.0
20260902063506 74 48 1.0 3.0 0.00 0.00 0.00 70 1021.1
20260902063009 74 48 1.0 2.0 0.00 0.00 0.00 70 1021.1
20260902062743 74 47 1.0 2.0 0.00 0.00 0.00 69 1021.0
20260902062005 73 46 1.0 2.0 0.00 0.00 0.00 69 1021.0
20260902061503 73 46 1.0 2.0 0.00 0.00 0.00 69 1020.9
20260902061005 73 46 1.0 2.0 0.00 0.00 0.00 69 1020.9
20260902060504 72 45 0.0 2.0 0.00 0.00 0.00 69 1021.0
20260902060003 72 45 1.0 2.0 0.00 0.00 0.00 69 1021.0
20260902055504 72 354 1.0 2.0 0.00 0.00 0.00 69 1021.0
20260902055003 71 354 0.0 1.0 0.00 0.00 0.00 70 1021.0
20260902054508 71 354 0.0 1.0 0.00 0.00 0.00 70 1020.9
20260902054005 71 354 0.0 1.0 0.00 0.00 0.00 72 1021.0
20260902053504 70 354 0.0 1.0 0.00 0.00 0.00 72 1020.9
20260902053006 70 354 0.0 1.0 0.00 0.00 0.00 72 1020.9
20260902052510 70 354 0.0 1.0 0.00 0.00 0.00 73 1020.7
20260902052003 69 354 0.0 0.0 0.00 0.00 0.00 73 1020.6
20260902051504 69 354 0.0 0.0 0.00 0.00 0.00 72 1020.5
20260902051004 69 354 0.0 1.0 0.00 0.00 0.00 72 1020.5
20260902050552 69 354 1.0 2.0 0.00 0.00 0.00 72 1020.5
20260902050528 69 354 1.0 2.0 0.00 0.00 0.00 72 1020.5
20260902045504 69 354 0.0 2.0 0.00 0.00 0.00 72 1020.5
20260902045011 69 354 1.0 2.0 0.00 0.00 0.00 72 1020.5
20260902044505 69 354 1.0 3.0 0.00 0.00 0.00 72 1020.6
20260902044008 69 354 1.0 3.0 0.00 0.00 0.00 72 1020.6
20260902043507 69 354 1.0 2.0 0.00 0.00 0.00 72 1020.5
20260902043249 69 354 1.0 2.0 0.00 0.00 0.00 72 1020.5
20260902042502 69 354 1.0 2.0 0.00 0.00 0.00 72 1020.5
20260902042002 69 354 1.0 2.0 0.00 0.00 0.00 72 1020.5
20260902041502 69 354 1.0 2.0 0.00 0.00 0.00 73 1020.5
20260902041002 69 354 1.0 2.0 0.00 0.00 0.00 73 1020.4
20260902040501 69 354 1.0 2.0 0.00 0.00 0.00 73 1020.4
20260902035959 69 354 0.0 1.0 0.00 0.00 0.00 73 1020.5
20260902035500 69 354 1.0 2.0 0.00 0.00 0.00 73 1020.5
20260902035000 69 354 1.0 2.0 0.00 0.00 0.00 73 1020.5
20260902034756 69 354 1.0 2.0 0.00 0.00 0.00 73 1020.5
20260902034001 69 354 1.0 2.0 0.00 0.00 0.00 73 1020.5
20260902033755 69 354 0.0 2.0 0.00 0.00 0.00 72 1020.5
20260902032958 69 354 0.0 2.0 0.00 0.00 0.00 72 1020.6
20260902032453 69 354 0.0 2.0 0.00 0.00 0.00 73 1020.5
20260902031949 69 354 1.0 3.0 0.00 0.00 0.00 73 1020.6
20260902031728 69 354 2.0 3.0 0.00 0.00 0.00 73 1020.5
20260902030944 69 350 2.0 2.0 0.00 0.00 0.00 73 1020.5
20260902030444 69 350 1.0 2.0 0.00 0.00 0.00 73 1020.6
20260902025941 69 350 1.0 2.0 0.00 0.00 0.00 73 1020.6
20260902025442 69 350 2.0 2.0 0.00 0.00 0.00 73 1020.6
20260902024940 69 350 2.0 2.0 0.00 0.00 0.00 73 1020.6
20260902024438 69 350 2.0 2.0 0.00 0.00 0.00 73 1020.6
20260902023939 69 350 1.0 2.0 0.00 0.00 0.00 73 1020.6
20260902023438 69 350 1.0 2.0 0.00 0.00 0.00 73 1020.5
20260902022938 69 350 1.0 2.0 0.00 0.00 0.00 73 1020.5
20260902022434 69 350 1.0 2.0 0.00 0.00 0.00 73 1020.5
20260902021934 69 350 1.0 2.0 0.00 0.00 0.00 73 1020.5
20260902021433 69 350 1.0 2.0 0.00 0.00 0.00 73 1020.6
20260902021254 69 350 1.0 2.0 0.00 0.00 0.00 73 1020.5
20260902020744 69 350 1.0 2.0 0.00 0.00 0.00 73 1020.6
20260902015934 69 350 1.0 2.0 0.00 0.00 0.00 73 1020.5
20260902015718 69 350 1.0 2.0 0.00 0.00 0.00 73 1020.7
20260902014932 69 350 1.0 1.0 0.00 0.00 0.00 73 1020.7
20260902014433 70 350 1.0 2.0 0.00 0.00 0.00 73 1020.6
20260902013934 70 350 1.0 2.0 0.00 0.00 0.00 73 1020.6
20260902013434 70 350 1.0 2.0 0.00 0.00 0.00 73 1020.6
20260902012933 70 350 1.0 2.0 0.00 0.00 0.00 74 1020.6
20260902012434 70 350 1.0 2.0 0.00 0.00 0.00 74 1020.6
20260902011934 70 350 1.0 3.0 0.00 0.00 0.00 74 1020.5
20260902011434 69 350 1.0 3.0 0.00 0.00 0.00 74 1020.5
20260902010932 70 350 0.0 1.0 0.00 0.00 0.00 74 1020.4
20260902010433 70 350 0.0 2.0 0.00 0.00 0.00 74 1020.4
20260902005932 70 350 0.0 2.0 0.00 0.00 0.00 74 1020.4
20260902005726 70 350 1.0 2.0 0.00 0.00 0.00 74 1020.5
20260902004932 70 350 1.0 2.0 0.00 0.00 0.00 74 1020.5
20260902004433 70 350 1.0 2.0 0.00 0.00 0.00 74 1020.6
20260902003932 69 350 1.0 2.0 0.00 0.00 0.00 74 1020.5
20260902003437 69 350 1.0 3.0 0.00 0.00 0.00 74 1020.6
20260902002934 69 350 2.0 3.0 0.00 0.00 0.00 74 1020.6
20260902002434 70 350 2.0 3.0 0.00 0.00 0.00 74 1020.6
20260902001934 70 350 2.0 3.0 0.00 0.00 0.00 74 1020.7
20260902001433 70 350 1.0 2.0 0.00 0.00 0.00 74 1020.7
20260902000932 70 350 1.0 3.0 0.00 0.00 0.00 74 1020.7
20260902000740 70 350 1.0 3.0 0.00 0.00 0.00 74 1020.7
20260902000219 70 354 1.0 3.0 0.00 0.00 0.00 75 1020.8
20260901235433 70 354 1.0 3.0 0.00 0.00 0.00 75 1020.8
20260901234932 70 297 1.0 2.0 0.00 0.00 0.00 74 1020.8
20260901234433 70 297 1.0 2.0 0.00 0.00 0.00 74 1020.8
20260901233933 70 297 1.0 2.0 0.00 0.00 0.00 74 1020.8
20260901233433 70 297 1.0 2.0 0.00 0.00 0.00 74 1020.8
20260901232938 70 297 1.0 2.0 0.00 0.00 0.00 74 1020.7
20260901232437 70 297 1.0 2.0 0.00 0.00 0.00 74 1020.8
20260901231932 70 297 1.0 2.0 0.00 0.00 0.00 75 1020.8
20260901231715 70 297 1.0 2.0 0.00 0.00 0.00 74 1020.8
20260901231036 70 297 1.0 2.0 0.00 0.00 0.00 74 1020.9
20260901231014 70 297 1.0 2.0 0.00 0.00 0.00 74 1020.9
20260901225933 71 297 1.0 2.0 0.00 0.00 0.00 74 1020.9
20260901225721 71 285 1.0 2.0 0.00 0.00 0.00 74 1020.9
20260901224932 71 285 1.0 2.0 0.00 0.00 0.00 74 1021.0
20260901224432 71 285 1.0 2.0 0.00 0.00 0.00 74 1021.0
20260901223933 71 285 1.0 1.0 0.00 0.00 0.00 74 1021.1
20260901223435 71 285 1.0 2.0 0.00 0.00 0.00 74 1021.0
20260901222934 71 285 1.0 2.0 0.00 0.00 0.00 74 1021.0
20260901222437 71 285 0.0 2.0 0.00 0.00 0.00 74 1020.9
20260901221937 71 285 0.0 2.0 0.00 0.00 0.00 74 1020.9
20260901221437 71 285 0.0 1.0 0.00 0.00 0.00 74 1020.8
20260901220935 71 285 1.0 2.0 0.00 0.00 0.00 74 1020.8
20260901220434 71 285 1.0 2.0 0.00 0.00 0.00 74 1020.9
20260901215934 71 285 1.0 2.0 0.00 0.00 0.00 74 1020.8
20260901215433 71 285 1.0 2.0 0.00 0.00 0.00 74 1020.8
20260901215214 71 285 1.0 2.0 0.00 0.00 0.00 74 1020.7
20260901214433 71 285 1.0 2.0 0.00 0.00 0.00 74 1020.7
20260901213936 71 285 1.0 2.0 0.00 0.00 0.00 73 1020.8
20260901213432 71 285 1.0 1.0 0.00 0.00 0.00 73 1020.9
20260901212932 71 285 1.0 2.0 0.00 0.00 0.00 73 1020.9
20260901212436 71 285 1.0 2.0 0.00 0.00 0.00 73 1020.8
20260901211934 72 285 1.0 2.0 0.00 0.00 0.00 73 1020.8
20260901211433 72 285 1.0 2.0 0.00 0.00 0.00 73 1020.8
20260901210934 72 285 1.0 2.0 0.00 0.00 0.00 73 1020.7
20260901210434 72 285 1.0 2.0 0.00 0.00 0.00 73 1020.7
20260901205932 72 285 1.0 2.0 0.00 0.00 0.00 73 1020.8
20260901205433 72 285 1.0 2.0 0.00 0.00 0.00 73 1020.9
20260901204933 72 285 1.0 3.0 0.00 0.00 0.00 73 1020.9
20260901204432 73 285 1.0 3.0 0.00 0.00 0.00 73 1020.9
20260901204217 73 285 0.0 2.0 0.00 0.00 0.00 73 1021.0
20260901203722 73 285 0.0 2.0 0.00 0.00 0.00 73 1020.9
20260901203213 73 285 0.0 1.0 0.00 0.00 0.00 73 1021.0
20260901202433 73 285 0.0 2.0 0.00 0.00 0.00 73 1021.0
20260901201934 73 285 0.0 2.0 0.00 0.00 0.00 73 1021.0
20260901201435 73 285 0.0 1.0 0.00 0.00 0.00 73 1021.0
20260901200935 72 285 0.0 2.0 0.00 0.00 0.00 73 1020.9
20260901200721 72 285 0.0 2.0 0.00 0.00 0.00 73 1021.0
20260901195931 72 285 0.0 2.0 0.00 0.00 0.00 73 1020.8
20260901195429 72 285 1.0 2.0 0.00 0.00 0.00 73 1020.8
20260901194929 72 285 1.0 2.0 0.00 0.00 0.00 73 1020.8
20260901194426 71 285 1.0 3.0 0.00 0.00 0.00 73 1020.7
20260901194211 71 285 2.0 3.0 0.00 0.00 0.00 73 1020.6
20260901193424 71 285 2.0 3.0 0.00 0.00 0.00 73 1020.6
20260901193158 71 285 2.0 3.0 0.00 0.00 0.00 73 1020.6
20260901192416 72 285 2.0 3.0 0.00 0.00 0.00 73 1020.5
20260901191911 72 285 1.0 3.0 0.00 0.00 0.00 73 1020.5
20260901191650 72 285 1.0 3.0 0.00 0.00 0.00 73 1020.4
20260901190907 72 285 1.0 3.0 0.00 0.00 0.00 73 1020.3
20260901190405 72 285 2.0 3.0 0.00 0.00 0.00 73 1020.2
20260901185905 72 285 2.0 3.0 0.00 0.00 0.00 74 1020.1
20260901185411 72 285 1.0 3.0 0.00 0.00 0.00 73 1020.0
20260901185200 72 285 1.0 3.0 0.00 0.00 0.00 74 1019.9